星链-30991 (STARLINK-30991 )

导读

STARLINK-30991是美国太空探索技术公司(SpaceX)部署的星链(Starlink)卫星,属于第二代小型星链卫星(Starlink V2.0 Mini),于北京时间2023年12月3日由猎鹰九号火箭从卡纳维拉尔角太空军基地发射入轨,单星重约790千克。星链星座旨在为全球提供高速宽带互联网服务,该卫星是星链星座扩容的重要组成部分,助力星座服务覆盖拓展,其服役寿命约5至7年,退役后会主动离轨再入大气层销毁。

基本信息
目录编号:
58484
目录名称:
STARLINK-30991
国际标识:
2023-186M
轨道中心:
EARTH
卫星名称:
星链-30991
卫星全名:
星链-30991 (STARLINK-30991 )
卫星状态:
在轨 (已飞行928 天)
发射日期:
2023-12-03 UTC
国别 :
美国 (US)
星等 :
--
轨道信息
数据来源 国际轨道数据 AOE轨道数据
星历时间 2026-06-16T18:37:44+0800
1天前
查看轨道信息
2026-06-16T07:00:00+0800
2天前
查看轨道信息
半长轴 6861.184km 6861.182km
偏心率 0.0002129 0.0002327
轨道倾角 43.006° 43.004°
近地点辐角 275.308° 255.725°
升交点赤经 225.559° 228.297°
平近点角 84.753° 316.605°
近地点 481.586km 481.448km
远地点 484.508km 484.642km
周期 94.267分钟 94.267分钟
每日圈数 15.275807 15.275816
详细信息
固有亮度:
5
最大亮度:
0.3
卫星平台:
Starlink v2.0 mini
覆盖范围:
全球
运营商:
太空探索技术公司
运营商所在国:
美国
制造商(研发单位):
太空探索技术公司
制造商所在国:
美国
使用方式:
暂无
卫星简介
星链(Starlink)计划是由太空探索技术公司(SpaceX)提出的一个巨型低轨卫星互联网星座项目,计划在2019年至2024年间在太空搭建由约1.2万颗卫星组成的“星链”网络,其中1584颗将部署在地球上空550千米处的近地轨道,并从2020年开始工作。该卫星仍在工作。
2D轨道图
3D轨道图
轨道高度分析图
轨道倾角分析图
轨道综合分析图
查看轨道综合分析图